TimePDT,TemperatureF,Dew PointF,Humidity,Sea Level PressureIn,VisibilityMPH,Wind Direction,Wind SpeedMPH,Gust SpeedMPH,PrecipitationIn,Events,Conditions,WindDirDegrees,DateUTC
12:15 AM,46.4,42.8,87,29.96,10.0,West,6.9,-,N/A,,Clear,270,2012-10-11 07:15:00
12:55 AM,48.2,44.6,87,29.96,10.0,West,8.1,-,N/A,,Clear,270,2012-10-11 07:55:00
1:15 AM,48.2,44.6,87,29.96,10.0,West,6.9,-,N/A,,Clear,280,2012-10-11 08:15:00
1:35 AM,48.2,44.6,87,29.96,10.0,WNW,6.9,-,N/A,,Clear,290,2012-10-11 08:35:00
1:55 AM,46.4,44.6,93,29.96,10.0,West,8.1,-,N/A,,Clear,280,2012-10-11 08:55:00
2:15 AM,46.4,44.6,93,29.96,10.0,WNW,6.9,-,N/A,,Clear,290,2012-10-11 09:15:00
2:35 AM,46.4,44.6,93,29.96,10.0,WNW,8.1,-,N/A,,Clear,290,2012-10-11 09:35:00
2:55 AM,46.4,42.8,87,29.96,10.0,West,3.5,-,N/A,,Clear,260,2012-10-11 09:55:00
3:15 AM,46.4,42.8,87,29.96,10.0,WNW,4.6,-,N/A,,Clear,290,2012-10-11 10:15:00
3:35 AM,44.6,42.8,93,29.96,10.0,West,5.8,-,N/A,,Clear,270,2012-10-11 10:35:00
4:15 AM,44.6,42.8,93,29.96,10.0,Calm,Calm,-,N/A,,Clear,0,2012-10-11 11:15:00
4:35 AM,42.8,41.0,93,29.95,10.0,Calm,Calm,-,N/A,,Clear,0,2012-10-11 11:35:00
4:55 AM,37.4,33.8,87,29.95,10.0,SSE,4.6,-,N/A,,Clear,160,2012-10-11 11:55:00
5:15 AM,37.4,35.6,93,29.95,10.0,Calm,Calm,-,N/A,,Clear,0,2012-10-11 12:15:00
5:35 AM,35.6,35.6,100,29.95,0.8,SSE,4.6,-,N/A,,Mostly Cloudy,160,2012-10-11 12:35:00
5:55 AM,35.6,33.8,93,29.96,1.8,SSW,3.5,-,N/A,,Scattered Clouds,200,2012-10-11 12:55:00
6:15 AM,35.6,33.8,93,29.95,0.5,Calm,Calm,-,N/A,,Mostly Cloudy,0,2012-10-11 13:15:00
6:35 AM,35.6,33.8,93,29.96,0.8,Calm,Calm,-,N/A,,Mostly Cloudy,0,2012-10-11 13:35:00
6:55 AM,35.6,33.8,93,29.96,4.0,Calm,Calm,-,N/A,,Scattered Clouds,0,2012-10-11 13:55:00
7:15 AM,35.6,33.8,93,29.96,0.2,Calm,Calm,-,N/A,,Overcast,0,2012-10-11 14:15:00
7:35 AM,35.6,35.6,100,29.96,2.0,Calm,Calm,-,N/A,,Overcast,0,2012-10-11 14:35:00
7:55 AM,35.6,33.8,93,29.96,0.2,Calm,Calm,-,N/A,,Overcast,0,2012-10-11 14:55:00
8:15 AM,35.6,35.6,100,29.97,0.5,Calm,Calm,-,N/A,,Overcast,0,2012-10-11 15:15:00
8:35 AM,37.4,37.4,100,29.98,0.5,Calm,Calm,-,N/A,,Overcast,0,2012-10-11 15:35:00
8:55 AM,39.2,39.2,100,29.98,10.0,Calm,Calm,-,N/A,,Overcast,0,2012-10-11 15:55:00
9:15 AM,41.0,39.2,93,29.98,10.0,Calm,Calm,-,N/A,,Overcast,0,2012-10-11 16:15:00
9:35 AM,42.8,41.0,93,29.98,10.0,Calm,Calm,-,N/A,,Overcast,0,2012-10-11 16:35:00
9:55 AM,44.6,41.0,87,29.98,10.0,Calm,Calm,-,N/A,,Overcast,0,2012-10-11 16:55:00
10:15 AM,44.6,42.8,93,29.98,10.0,Calm,Calm,-,N/A,,Overcast,0,2012-10-11 17:15:00
11:15 AM,50.0,46.4,87,29.97,8.0,Calm,Calm,-,N/A,,Overcast,0,2012-10-11 18:15:00
11:35 AM,50.0,46.4,87,29.97,8.0,Calm,Calm,-,N/A,,Overcast,0,2012-10-11 18:35:00
11:55 AM,51.8,46.4,82,29.96,8.0,Calm,Calm,-,N/A,,Overcast,0,2012-10-11 18:55:00
12:15 PM,53.6,46.4,77,29.96,8.0,Calm,Calm,-,N/A,,Mostly Cloudy,0,2012-10-11 19:15:00
12:35 PM,55.4,46.4,72,29.95,10.0,ENE,3.5,-,N/A,,Partly Cloudy,60,2012-10-11 19:35:00
12:55 PM,57.2,46.4,67,29.94,9.0,Calm,Calm,-,N/A,,Clear,0,2012-10-11 19:55:00
1:15 PM,59.0,48.2,67,29.93,10.0,Calm,Calm,-,N/A,,Clear,0,2012-10-11 20:15:00
1:35 PM,62.6,48.2,59,29.92,10.0,Calm,Calm,-,N/A,,Clear,0,2012-10-11 20:35:00
1:55 PM,62.6,48.2,59,29.91,10.0,ENE,3.5,-,N/A,,Clear,70,2012-10-11 20:55:00
2:15 PM,62.6,48.2,59,29.90,10.0,Calm,Calm,-,N/A,,Clear,0,2012-10-11 21:15:00
2:35 PM,64.4,48.2,56,29.89,10.0,Calm,Calm,-,N/A,,Clear,0,2012-10-11 21:35:00
3:15 PM,66.2,48.2,52,29.87,10.0,Calm,Calm,-,N/A,,Clear,0,2012-10-11 22:15:00
3:35 PM,69.8,48.2,46,29.86,10.0,Calm,Calm,-,N/A,,Clear,0,2012-10-11 22:35:00
3:55 PM,69.8,48.2,46,29.85,10.0,Calm,Calm,-,N/A,,Clear,0,2012-10-11 22:55:00
4:15 PM,69.8,48.2,46,29.84,10.0,NW,3.5,-,N/A,,Clear,320,2012-10-11 23:15:00
4:35 PM,69.8,48.2,46,29.83,10.0,Calm,Calm,-,N/A,,Clear,0,2012-10-11 23:35:00
4:55 PM,71.6,48.2,43,29.82,10.0,Calm,Calm,-,N/A,,Clear,0,2012-10-11 23:55:00
5:15 PM,71.6,48.2,43,29.82,10.0,Calm,Calm,-,N/A,,Clear,0,2012-10-12 00:15:00
5:35 PM,71.6,48.2,43,29.81,10.0,ENE,3.5,-,N/A,,Clear,70,2012-10-12 00:35:00
5:55 PM,69.8,48.2,46,29.80,10.0,NNE,4.6,-,N/A,,Clear,30,2012-10-12 00:55:00
6:15 PM,66.2,48.2,52,29.80,10.0,WNW,5.8,-,N/A,,Clear,300,2012-10-12 01:15:00
6:35 PM,62.6,50.0,63,29.81,10.0,WNW,11.5,-,N/A,,Clear,290,2012-10-12 01:35:00
6:55 PM,60.8,48.2,63,29.81,10.0,WNW,10.4,-,N/A,,Clear,290,2012-10-12 01:55:00
7:15 PM,57.2,48.2,72,29.82,10.0,WNW,6.9,-,N/A,,Clear,300,2012-10-12 02:15:00
7:35 PM,57.2,48.2,72,29.81,10.0,West,10.4,-,N/A,,Clear,280,2012-10-12 02:35:00
7:55 PM,57.2,48.2,72,29.83,10.0,West,13.8,-,N/A,,Clear,280,2012-10-12 02:55:00
8:55 PM,53.6,46.4,77,29.84,10.0,West,16.1,-,N/A,,Clear,270,2012-10-12 03:55:00
9:15 PM,53.6,46.4,77,29.84,10.0,West,13.8,-,N/A,,Clear,280,2012-10-12 04:15:00
9:35 PM,51.8,46.4,82,29.85,10.0,West,13.8,18.4,N/A,,Clear,280,2012-10-12 04:35:00
9:55 PM,51.8,46.4,82,29.85,10.0,West,13.8,-,N/A,,Clear,270,2012-10-12 04:55:00
10:15 PM,50.0,44.6,82,29.85,10.0,West,16.1,-,N/A,,Clear,270,2012-10-12 05:15:00
10:35 PM,50.0,44.6,82,29.85,10.0,West,17.3,-,N/A,,Clear,270,2012-10-12 05:35:00
10:55 PM,48.2,46.4,93,29.86,10.0,West,15.0,24.2,N/A,,Clear,270,2012-10-12 05:55:00
11:15 PM,48.2,46.4,93,29.87,10.0,West,16.1,-,N/A,,Clear,270,2012-10-12 06:15:00
11:35 PM,48.2,46.4,93,29.88,10.0,West,13.8,21.9,N/A,,Clear,260,2012-10-12 06:35:00
11:55 PM,48.2,44.6,87,29.89,10.0,West,6.9,-,N/A,,Clear,260,2012-10-12 06:55:00